Regional Weather Roundup
Issued by NWS Grand Forks, ND

Home | Current Version | Previous Version | Text Only | Print | Product List | Glossary Off
Versions: 1 2 3 4 5 6 7 8 9 10 11 12 13 14 15 16 17 18 19 20 21 22 23 24 25 26 27 28 29 30 31 32 33 34 35 36 37 38 39 40 41 42 43 44 45 46 47 48 49 50

000
ASUS43 KFGF 030210
RWRFGF
PRAIRIE TO PINES  WEATHER ROUNDUP
NATIONAL WEATHER SERVICE EASTERN NORTH DAKOTA/GRAND FORKS ND
800 PM CST MON MAR 02 2015

 **SATELLITE DATA USED TO AUGMENT SKY COVER AT AUTOMATED STATIONS**
 *****  WEATHER ACROSS EASTERN NORTH DAKOTA  *****

CITY           SKY/WX    TMP DP  RH WIND       PRES   REMARKS
GRAND FORKS    PTCLDY    26  17  68 S23       29.83F WCI  11
GRAND FRKS AFB CLEAR     26  17  70 S16G30    29.81F WCI  13
GRAND FRKS NWS   N/A     23 N/A N/A S24         N/A  WCI   7
DEVILS LAKE    CLEAR     27  19  74 S14       29.74F WCI  15
FARGO          MOCLDY    28  17  63 S25G39    29.89F WCI  13
WAHPETON ARPT  CLOUDY    28  18  64 S21G30    29.94F WCI  15
$$

 ***** WEATHER ACROSS CENTRAL AND WESTERN NORTH DAKOTA  *****

CITY           SKY/WX    TMP DP  RH WIND       PRES   REMARKS
BISMARCK       PTCLDY    29  22  75 SE5       29.73S WCI  24
MINOT          MOCLDY    28  17  63 NW20      29.75R WCI  15
JAMESTOWN      PTCLDY    26  18  71 S16       29.76F WCI  14
MINOT AFB      MOCLDY    25  21  85 NW21      29.75R WCI  11
GARRISON         N/A     24  17  74 NW10      29.74R WCI  14
WILLISTON      MOCLDY    20  12  71 N20G29    29.88R WCI   4
DICKINSON      MOCLDY    33  17  51 N12       29.72R WCI  24
HETTINGER      CLOUDY    25  14  63 NW8       29.72S WCI  16
$$

 *****  OTHER AIRPORT OBSERVATIONS IN OUR AREA  *****

CITY           SKY/WX    TMP DP  RH WIND       PRES   REMARKS
WALHALLA         N/A     25  19  80 S16       29.77F WCI  12
GRAFTON AIRPOR NOT AVBL
VALLEY CITY AR FLURRIES  27  21  80 S20G25    29.80F WCI  13
CANDO          FAIR      23  19  86 S13       29.71F WCI  11
CAVALIER APRT  FAIR      25  18  74 S13       29.79F WCI  13
GWINNER        CLEAR     30  21  69 S16       29.86F WCI  19
ROLLA          MOCLDY    19  19 100 SW10      29.69F WCI   8
 ***** THE ABOVE OBSERVATIONS ARE NON NWS ARE NOT QUALITY
       CONTROLLED AND MAY MIS-REPORT RAIN FOR SNOW...
$$

  *****  WEATHER ACROSS NORTHERN MINNESOTA  *****

CITY           SKY/WX    TMP DP  RH WIND       PRES   REMARKS
FLAG ISLAND    CLOUDY    18   9  68 S14       29.86F WCI   4
WARROAD        CLOUDY    25  12  58 S17       29.85F WCI  11
ROSEAU         CLOUDY    27  14  59 S16       29.85F WCI  14
HALLOCK        NOT AVBL
THF RVR FALLS  CLOUDY    25  16  68 S20       29.87F WCI  11
BAUDETTE       CLOUDY    23   7  50 S13       29.88F WCI  11
WASKISH        MOCLDY    25   9  50 S8G17     29.92F WCI  16
CROOKSTON      CLEAR     25  18  74 S28       29.88F WCI   8
STEPHEN NDAWN    N/A     25  18  74 S21         N/A  WCI  10
GREENBUSH NDAW   N/A     25  18  74 S21         N/A  WCI  10
$$
  *****  WEATHER ACROSS CENTRAL AND WEST MINNESOTA  *****

CITY           SKY/WX    TMP DP  RH WIND       PRES   REMARKS
FOSSTON        CLOUDY    23  12  63 S24G31    29.89F WCI   7
BEMIDJI        CLOUDY    24  11  58 S20       29.92F WCI   9
PARK RAPIDS    CLOUDY    24  12  60 S21G28    29.96F WCI   9
ELBOW LAKE     CLOUDY    24  17  77 S25G31    29.97F WCI   7
WADENA         CLOUDY    21  12  68 S14G23    29.99F WCI   8
DETROIT LAKES  MOCLDY    27  18  69 S16G26    29.94F WCI  14
MOORHEAD       CLOUDY    28  19  69 S23G33    29.91F WCI  14
FERGUS FALLS   CLOUDY    25  16  68 S21       30.00F WCI  10
MORRIS MN      CLOUDY    25  18  74 S23       29.99F WCI  10
STAPLES        CLOUDY    21  12  68 S18       30.02F WCI   6
$$
  *****  WEATHER ELSEWHERE ACROSS MINNESOTA  *****

CITY           SKY/WX    TMP DP  RH WIND       PRES   REMARKS
DULUTH         PTCLDY    20   4  50 S13       30.08F WCI   7
INTRNTL FALLS  CLEAR     21   3  45 SE8       29.94F WCI  11
ELY            CLEAR     19   1  45 S10       30.04F WCI   8
CLOQUET        CLOUDY    21   3  45 S8        30.09F WCI  12
WHEATON        CLOUDY    25  18  74 SE20G26   29.98F WCI  11
BRAINERD       CLOUDY    22  11  62 S15G24    30.07S WCI   9
HIBBING        CLOUDY    21   4  47 S8G17     30.04F WCI  11
ALEXANDRIA     CLOUDY    23  14  68 SE20      30.01F WCI   8
SAINT CLOUD    CLOUDY    23  10  57 S12       30.10F WCI  12
MINNEAPOLIS    CLOUDY    21  10  62 S8        30.17F WCI  11
$$

  *****  WEATHER ACROSS SOUTH DAKOTA  *****

CITY           SKY/WX    TMP DP  RH WIND       PRES   REMARKS
SIOUX FALLS    CLOUDY    29  21  72 SE17G25   29.97F WCI  17
BROOKINGS      NOT AVBL
WATERTOWN      CLOUDY    26  19  74 S21       29.90F WCI  12
HURON          CLOUDY    31  20  63 SE16G25   29.88F WCI  20
SISSETON         N/A     28  19  69 S18       29.92F WCI  15
ABERDEEN       CLEAR     29  19  66 S23G31    29.85F WCI  15
MITCHELL       CLOUDY    33  20  58 MISG      29.91F
PIERRE         MOCLDY    37  15  40 SE10      29.75F
MOBRIDGE       MOCLDY    36  22  56 SE12      29.71S
RAPID CITY     CLOUDY    38  23  55 N15       29.66F
$$

  *****  SOME WEATHER IN NEARBY STATES *****

CITY           SKY/WX    TMP DP  RH WIND       PRES   REMARKS
GLASGOW MT     CLOUDY    20  10  65 NW26G33   29.96R WCI   2
GREAT FALLS MT LGT SNOW  18  14  86 N13       30.04R FOG     WCI   4
CHEYENNE WY    PTCLDY    31  23  72 S6        29.54F
SCOTTSBLUFF NE CLEAR     30  23  75 E14       29.63F WCI  19
OMAHA NE       CLOUDY    34  20  56 SE18      30.05F WCI  23
DES MOINES IA  CLOUDY    30  17  58 SE8       30.17F WCI  22
DAVENPORT IA   CLOUDY    26  16  65 E9        30.28F WCI  17
CHICAGO IL     CLOUDY    27  16  63 SW7       30.34F WCI  19
EAU CLAIRE WI  CLOUDY    24   8  50 S8        30.19F WCI  15
LA CROSSE WI   CLOUDY    27  13  55 S9        30.26F WCI  18
$$

  *****  SOME NATIONAL WEATHER *****

CITY           SKY/WX    TMP DP  RH WIND       PRES   REMARKS
LA GUARDIA NY  PTCLDY    32  11  41 NW22G28   30.29R WCI  19
RALEIGH NC     PTCLDY    44  24  45 CALM      30.32R
ATLANTA GA     CLOUDY    54  50  86 NW3       30.27R
NEW ORLEANS LA LGT RAIN  70  66  87 S5        30.19R
OKLAHOMA CITY  DRIZZLE   36  34  93 S8        30.14S FOG
ALBUQUERQUE NM CLOUDY    54  41  61 S29G37    29.86R
SALT LAKE CITY LGT RAIN  34  33  96 W13       29.63R FOG     WCI  25
LOS ANGELES CA PTCLDY    56  45  66 S6        29.93R
BOISE ID       CLOUDY    44  18  35 NW9       29.73R
SEATTLE WA     PTCLDY    48  28  46 N13       30.06R
$$

*** WEATHER ACROSS MANITOBA...SASKATCHEWAN AND ONTARIO ***
                ***ONTARIO***

CITY           SKY/WX    TMP DP  RH WIND       PRES   REMARKS
GERALDTON      PTCLDY    10  -2  56 S8        30.08F WCI  -1
THUNDER BAY    CLEAR     19  12  73 S3        30.14F
SIOUX LOOKOUT  CLEAR     14  -2  48 S7        29.91F WCI   4
TORONTO        CLEAR     16   7  67 W6        30.42S WCI   7
BIG TROUT LK   PTCLDY     7  -6  56 S9        29.80F WCI  -7
PICKLE LAKE    PTCLDY    14  -6  41 S13       29.88F WCI   0
DRYDEN         CLOUDY    18   3  53 S13G18    29.88F WCI   4
KENORA         CLOUDY    21   7  53 S10G17    29.83F WCI  10
$$
                *** MANITOBA***

CITY           SKY/WX    TMP DP  RH WIND       PRES   REMARKS
BRANDON        CLOUDY    19  14  79 W12       29.68F WCI   7
DAUPHIN        CLOUDY    23  16  74 W13       29.67F WCI  11
ISLAND LAKE    FLURRIES  23   7  50 S8        29.67F WCI  14
PILOT MOUND      N/A     21  18  86 S17G23      N/A  WCI   7
THE PAS        FLURRIES  12   7  79 NW20G31   29.75R WCI  -6
THOMPSON       LGT SNOW  16  14  93 W7        29.61S WCI   6
WINNIPEG       MOCLDY    23  16  74 S25G33    29.78F WCI   7
LYNN LAKE      LGT SNOW  -2  -9  71 N26G37    29.79R WCI -28
CHURCHILL      FLURRIES  -4  -9  77 E18       29.81S WCI -26
GILLAM         LGT SNOW  18  16  93 NW3       29.60F
$$
                ***SASKATCHEWAN***

CITY           SKY/WX    TMP DP  RH WIND       PRES   REMARKS
ESTEVAN        MOCLDY    16  12  86 NW30G37   29.81R WCI  -4
KINDERSLEY     PTCLDY     7  -2  66 NW17G24   30.11R WCI -12
LLOYDMINSTER   NOT AVBL
PRINCE ALBERT  MOCLDY     3  -8  60 NW13G23   30.00R WCI -14
REGINA         FLURRIES  10   7  85 N29G38    29.92R WCI -11
YORKTON        FLURRIES  14   9  79 NW24G32   29.77R WCI  -5
N. BATTLEFORD  PTCLDY     3  -4  72 NW12      30.10R WCI -13
LA RONGE       LGT SNOW   1  -6  71 NW15G26   29.99R DRFTSNOWWCI -18
SASKATOON      LGT SNOW   9   3  78 NW18G28   30.05R VSB 1   WCI -10
SWIFT CURRENT  FLURRIES  10   5  79 NW20G25   30.02R WCI  -8
$$
NOTE: THESE ARE AUTOMATED STATIONS WITH LIMITED QUALITY CONTROL
      "FAIR" INDICATES FEW OR NO CLOUDS BELOW 12,000 FEET WITH NO
      SIGNIFICANT WEATHER AND/OR OBSTRUCTIONS TO VISIBILITY.
      SKY/WX - SKY CONDITION AND SIGNIFICANT WEATHER.
      TMP - AIR TEMPERATURE.    DP   - DEWPOINT TEMPERATURE.
      RH  - RELATIVE HUMIDITY.  PRES - PRESSURE.
      HX  - HEAT INDEX.         WCI  - WIND CHILL INDEX.
$



USA.gov is the U.S. government's official web portal to all federal, state and local government web resources and services.